Torna al catalogo

STARLINK-38175

AttivoComunicazioniSSO
NORAD 100161·PAYLOAD·🇺🇸 United States

Lanciato Jul 25, 2026 da Vandenberg Space Force Base

Loading…

Prossimi Passaggi (prossime 24 ore)

TLE

AggiornatoSource: Space-Track

Epoca: Sep 14, 2026, 12:32 UTC

1 A0161U 26171P   26257.52247752  .00013859  00000-0  38518-3 0  9995
2 A0161  97.2841 290.1046 0001037  78.5727 281.5634 15.36976314  7988

Traccia STARLINK-38175 in tempo reale con AllMySat

Download on the App Store